Temp
19 16 15 17 18 19 19 18 18 18 18 17 15 17 17 21 21 21 22 22 21 21 21 20 19 18 17 17 16 16 15 14 14 13 13 13 13 12 12 12 12 12 12 12
16 15 17 19 19 19 19 18 17 17 19 18 16 17 18 19 20 21 20 20 21 20 20 19 18 18 17 17 16 16 15 14 14 13 13 13 13 12 12 12 12 12 12 11
15 17 18 18 20 19 19 18 15 17 16 18 18 17 17 19 19 20 20 19 19 19 18 18 18 17 17 16 16 15 15 14 14 13 13 12 12 12 12 12 12 12 11 11
15 16 19 18 19 20 19 20 20 18 16 15 17 15 17 17 17 16 17 18 18 18 18 18 17 17 16 16 15 15 15 14 14 13 13 12 12 12 12 12 11 11 11 10
16 16 18 19 19 18 18 19 18 18 17 16 18 15 15 15 15 15 15 16 17 17 17 17 17 17 16 16 15 15 14 14 14 13 13 13 12 12 12 11 11 10 10 9
16 18 17 18 17 18 18 17 15 16 15 15 16 15 15 15 14 14 14 16 16 16 18 17 17 16 16 15 15 15 14 14 13 13 13 12 12 12 11 11 10 10 9 9
16 16 17 16 16 16 16 14 13 14 14 14 16 15 15 15 14 13 13 15 15 16 17 17 16 16 15 15 15 14 14 14 13 12 12 12 12 11 11 10 10 9 9 8
15 16 17 17 15 17 16 15 13 16 13 15 18 15 14 14 15 15 15 15 15 15 15 15 15 15 14 14 14 13 13 13 12 12 12 11 11 10 10 9 9 8 8 8
14 15 16 16 16 16 17 16 16 16 18 14 14 15 15 14 13 13 14 14 14 14 14 14 14 14 13 13 13 12 12 11 11 11 11 11 10 10 9 8 7 7 7 6
14 15 16 16 18 18 17 17 16 14 17 16 16 13 13 12 12 12 12 13 13 13 13 13 13 13 13 12 12 12 12 11 11 11 11 10 9 8 8 7 6 6 5 5
16 15 14 16 16 16 15 16 16 15 14 14 14 13 13 12 13 11 12 13 13 13 12 12 12 12 11 11 10 10 10 10 10 9 9 8 7 7 6 6 5 5 4 4
15 14 13 16 16 16 16 17 15 13 16 14 11 12 13 13 13 13 13 14 13 13 12 12 11 11 10 10 10 9 9 9 8 8 7 7 6 6 5 5 4 4 4 3
13 14 13 14 14 15 16 17 17 14 11 14 11 13 13 13 12 13 13 13 13 12 12 12 11 10 10 10 9 9 9 8 8 7 6 6 5 5 4 4 3 3 3 3
12 13 13 13 15 14 15 17 17 13 11 12 12 13 14 13 12 12 13 13 13 12 12 11 11 10 10 9 9 8 8 7 7 6 6 5 4 4 3 3 3 3 2 2
12 14 15 16 16 16 16 16 16 15 14 14 15 14 12 12 11 13 14 13 13 12 11 10 10 9 9 8 8 7 7 6 5 5 4 4 4 3 3 3 2 2 1 0
12 13 15 16 16 16 15 16 15 14 15 15 15 14 14 13 14 13 14 13 12 11 9 9 9 8 8 7 7 6 6 5 5 4 4 3 3 3 2 2 1 1 0 -0
12 12 11 14 15 15 13 13 14 15 16 15 14 13 13 12 12 13 13 13 11 10 9 8 8 7 7 6 6 5 4 4 4 4 3 2 2 2 2 1 1 0 -1 -1
13 13 10 8 12 13 14 13 14 14 15 12 11 12 13 13 13 13 13 12 9 9 8 8 7 7 6 5 5 4 4 4 3 3 2 2 2 2 1 1 -0 -1 -1 -1
10 11 10 9 9 12 13 13 14 15 15 14 12 11 12 12 12 8 9 10 9 8 7 7 6 6 5 4 4 4 3 3 3 2 2 2 2 1 1 -0 -1 -1 -1 -2
11 10 10 9 8 9 13 13 14 12 10 13 13 11 10 11 7 5 8 8 7 7 6 6 5 5 4 4 3 3 3 3 2 2 2 1 1 1 -0 -1 -1 -2 -2 -2
10 8 8 8 6 8 11 12 13 11 9 14 14 13 11 8 9 9 7 7 7 6 6 5 5 4 4 3 3 3 3 3 2 2 1 1 0 -0 -1 -1 -2 -2 -2 -3
9 6 6 7 8 9 12 12 11 10 12 13 13 13 11 9 8 7 7 6 6 5 5 4 4 4 3 3 3 3 2 2 2 1 1 1 -0 -1 -2 -2 -2 -2 -3 -3
9 10 8 7 8 11 13 12 12 13 12 12 12 11 11 9 8 7 6 6 5 5 5 4 4 4 3 3 3 2 2 2 1 1 1 0 -1 -1 -2 -2 -3 -3 -3 -4
12 11 9 9 11 11 13 12 12 12 11 11 11 10 9 8 7 6 6 5 5 5 4 4 4 3 3 3 3 2 2 1 1 0 0 -1 -1 -2 -3 -3 -3 -4 -4 -4
10 10 9 8 10 12 13 13 12 11 11 10 9 9 8 7 6 6 5 5 5 5 4 4 3 3 3 3 2 2 1 1 0 -0 -1 -1 -2 -3 -3 -4 -4 -4 -4 -4
10 9 7 8 12 12 12 13 12 11 10 9 9 7 7 7 6 6 5 5 5 4 4 3 3 3 3 2 2 1 1 0 -0 -1 -1 -2 -3 -3 -4 -4 -4 -4 -5 -5
Height
1478 1484 1489 1486 1487 1490 1494 1500 1503 1503 1503 1508 1516 1513 1509 1505 1505 1505 1504 1514 1517 1518 1519 1519 1520 1521 1525 1529 1533 1536 1539 1542 1543 1544 1545 1547 1548 1548 1548 1548 1547 1548 1548 1548
1483 1488 1481 1481 1484 1488 1490 1497 1504 1505 1500 1506 1512 1510 1502 1501 1502 1503 1504 1508 1511 1515 1516 1517 1518 1520 1522 1526 1530 1534 1538 1540 1542 1543 1544 1545 1545 1545 1546 1546 1545 1545 1545 1544
1486 1479 1477 1480 1481 1487 1488 1496 1506 1503 1504 1503 1507 1513 1503 1499 1501 1503 1505 1506 1509 1510 1510 1513 1516 1518 1521 1524 1528 1532 1535 1537 1539 1541 1542 1542 1542 1543 1543 1543 1542 1542 1541 1540
1483 1474 1475 1478 1480 1478 1489 1479 1484 1496 1507 1523 1506 1533 1505 1502 1503 1505 1504 1504 1506 1508 1510 1510 1514 1517 1520 1524 1527 1531 1533 1534 1536 1537 1539 1540 1540 1541 1541 1541 1540 1538 1537 1536
1480 1476 1474 1474 1474 1473 1485 1477 1486 1492 1502 1510 1510 1526 1513 1502 1509 1507 1505 1505 1505 1505 1506 1509 1513 1517 1520 1523 1526 1529 1531 1533 1534 1535 1536 1537 1537 1538 1538 1537 1536 1535 1534 1533
1478 1471 1472 1473 1474 1473 1477 1483 1492 1497 1508 1526 1508 1516 1516 1508 1506 1507 1506 1506 1505 1505 1504 1508 1514 1517 1520 1523 1525 1528 1530 1532 1533 1534 1534 1534 1534 1534 1534 1533 1532 1532 1531 1529
1482 1476 1471 1475 1480 1479 1480 1496 1525 1528 1530 1530 1498 1513 1505 1503 1501 1503 1505 1506 1507 1507 1507 1511 1514 1517 1520 1522 1524 1526 1528 1531 1531 1532 1532 1531 1530 1529 1528 1528 1527 1527 1525 1524
1489 1492 1477 1475 1480 1483 1486 1493 1515 1519 1530 1516 1491 1513 1508 1500 1500 1502 1504 1506 1507 1509 1511 1513 1516 1518 1519 1521 1523 1525 1526 1527 1528 1528 1528 1528 1527 1526 1525 1523 1522 1521 1520 1520
1490 1489 1478 1477 1477 1481 1485 1493 1487 1499 1494 1514 1508 1508 1504 1502 1503 1504 1506 1507 1508 1510 1512 1513 1515 1516 1518 1519 1521 1522 1523 1524 1525 1525 1524 1523 1522 1521 1519 1518 1518 1517 1516 1514
1485 1493 1481 1480 1478 1479 1481 1482 1499 1504 1508 1511 1505 1513 1511 1506 1506 1506 1507 1507 1508 1510 1512 1513 1515 1517 1519 1520 1521 1521 1522 1522 1522 1522 1521 1520 1519 1518 1516 1515 1513 1512 1511 1509
1480 1486 1491 1482 1485 1486 1488 1488 1487 1493 1502 1513 1517 1514 1492 1497 1499 1503 1504 1506 1508 1510 1513 1514 1516 1518 1519 1520 1520 1520 1520 1519 1518 1517 1517 1516 1515 1514 1512 1510 1508 1506 1505 1503
1482 1487 1495 1487 1482 1480 1480 1482 1486 1508 1500 1501 1514 1515 1489 1490 1493 1497 1502 1505 1508 1510 1513 1516 1517 1518 1519 1519 1519 1519 1518 1517 1515 1514 1512 1510 1509 1508 1506 1505 1504 1501 1499 1497
1487 1490 1502 1496 1490 1484 1483 1480 1480 1488 1500 1501 1518 1510 1490 1491 1495 1498 1500 1504 1507 1511 1514 1516 1516 1517 1517 1518 1518 1517 1516 1514 1512 1510 1509 1507 1505 1503 1502 1500 1498 1496 1492 1489
1487 1487 1491 1501 1488 1486 1486 1480 1479 1489 1510 1504 1505 1501 1495 1495 1496 1498 1500 1502 1506 1509 1511 1513 1513 1514 1515 1516 1515 1514 1513 1511 1509 1507 1505 1503 1500 1499 1497 1495 1492 1489 1486 1482
1485 1488 1482 1482 1479 1479 1479 1479 1481 1485 1490 1496 1493 1493 1493 1491 1492 1493 1495 1500 1503 1506 1508 1510 1510 1511 1512 1512 1511 1510 1508 1506 1504 1503 1501 1499 1497 1495 1492 1489 1486 1483 1480 1475
1483 1489 1483 1483 1481 1481 1483 1480 1481 1484 1483 1485 1486 1490 1487 1487 1489 1494 1495 1498 1500 1504 1505 1506 1508 1509 1508 1509 1508 1506 1505 1503 1501 1499 1496 1495 1492 1490 1487 1484 1481 1477 1473 1469
1485 1488 1494 1493 1483 1484 1492 1483 1481 1479 1477 1481 1490 1488 1488 1489 1490 1491 1494 1496 1498 1501 1504 1505 1505 1506 1506 1505 1504 1503 1501 1500 1498 1496 1493 1491 1488 1485 1483 1479 1474 1470 1466 1462
1484 1486 1494 1509 1493 1502 1480 1477 1478 1478 1476 1479 1484 1486 1487 1489 1491 1493 1494 1495 1498 1500 1501 1503 1504 1504 1503 1502 1501 1499 1497 1495 1494 1491 1489 1487 1484 1481 1477 1472 1468 1464 1460 1456
1484 1488 1498 1507 1508 1491 1481 1478 1478 1477 1480 1478 1482 1485 1486 1489 1491 1495 1496 1496 1497 1498 1500 1501 1502 1502 1501 1500 1498 1495 1494 1492 1490 1487 1484 1481 1480 1476 1472 1467 1463 1459 1455 1450
1484 1487 1496 1504 1513 1511 1481 1477 1476 1477 1495 1476 1477 1482 1484 1487 1497 1496 1495 1496 1496 1497 1498 1499 1499 1499 1497 1496 1494 1493 1490 1487 1485 1483 1481 1478 1475 1471 1467 1462 1458 1454 1449 1445
1493 1497 1504 1506 1515 1495 1478 1476 1478 1495 1496 1476 1476 1478 1481 1484 1486 1489 1493 1494 1496 1497 1497 1497 1497 1496 1495 1494 1492 1490 1488 1484 1481 1479 1477 1474 1471 1466 1462 1458 1453 1449 1444 1438
1491 1506 1506 1504 1506 1502 1474 1478 1483 1477 1474 1474 1476 1477 1479 1482 1486 1489 1492 1493 1495 1496 1496 1495 1495 1495 1493 1491 1488 1486 1483 1481 1478 1475 1472 1469 1466 1462 1458 1453 1449 1444 1438 1432
1490 1481 1489 1491 1488 1470 1470 1470 1471 1472 1472 1475 1476 1478 1480 1482 1486 1489 1492 1494 1494 1494 1494 1494 1493 1491 1490 1488 1485 1482 1479 1477 1474 1471 1468 1464 1460 1457 1453 1448 1443 1437 1433 1427
1473 1471 1477 1478 1468 1466 1467 1468 1469 1471 1473 1475 1477 1478 1479 1482 1487 1489 1492 1493 1493 1493 1493 1492 1490 1488 1486 1484 1481 1478 1475 1472 1470 1467 1463 1460 1456 1452 1448 1444 1439 1433 1428 1423
1470 1469 1472 1473 1466 1464 1464 1464 1466 1469 1471 1474 1476 1478 1480 1483 1486 1488 1490 1491 1492 1491 1491 1489 1487 1485 1484 1481 1477 1474 1471 1468 1465 1462 1459 1455 1451 1448 1443 1439 1434 1429 1425 1421
1461 1462 1470 1469 1457 1458 1459 1460 1464 1466 1469 1471 1474 1478 1481 1483 1485 1488 1489 1490 1489 1488 1488 1486 1484 1482 1479 1476 1473 1471 1468 1465 1462 1458 1455 1451 1447 1443 1439 1434 1428 1426 1422 1417
Wind_Speed
10 3 7 5 6 6 7 8 10 3 6 5 5 6 8 11 10 13 12 10 6 22 23 23 24 23 20 18 16 16 20 16 15 12 13 12 12 10 10 10 10 10 10 11
2 7 8 10 13 16 13 6 4 4 6 5 7 10 9 8 4 12 13 8 7 2 23 26 27 25 21 18 15 14 15 18 17 13 14 10 8 8 8 10 12 11 15 16
5 7 11 10 15 17 15 8 6 7 3 3 5 6 6 3 9 11 9 8 1 3 23 30 30 27 22 18 15 13 12 16 15 14 13 13 12 14 16 16 15 17 16 17
6 6 13 14 11 10 11 5 8 13 8 5 6 4 5 7 6 6 10 5 2 2 10 31 29 26 23 19 15 14 14 18 18 17 16 18 19 19 17 15 15 17 19 19
4 5 3 5 3 2 4 5 9 7 6 5 3 3 6 7 5 4 7 6 4 1 4 32 29 24 20 19 19 18 15 15 15 15 16 16 18 18 18 17 17 17 17 17
2 5 2 3 1 4 7 7 8 5 4 1 8 7 3 4 6 4 6 5 4 4 4 26 23 20 19 17 17 16 18 14 13 14 17 18 19 19 20 20 21 18 17 18
6 2 3 4 6 5 6 6 3 2 1 5 4 5 5 5 6 8 11 9 9 13 20 22 23 20 18 18 17 17 16 18 16 11 12 15 19 21 22 23 22 23 24 21
3 1 4 2 4 5 4 6 5 6 5 4 3 4 4 5 14 17 15 13 12 15 17 18 17 15 13 12 11 11 12 13 13 13 16 18 17 18 19 21 23 23 23 24
1 1 2 5 3 4 4 2 4 3 1 4 3 3 4 5 7 15 17 16 13 14 14 13 11 10 9 8 7 8 7 8 10 12 15 17 20 20 19 18 17 18 23 25
3 3 2 2 2 2 2 3 3 2 2 3 2 4 4 8 7 7 10 16 16 14 12 11 10 8 7 7 7 7 7 8 10 11 14 16 17 16 17 18 19 19 20 22
2 3 3 3 2 5 1 1 1 3 4 4 1 4 6 10 11 11 14 18 18 16 12 10 7 5 4 3 3 6 9 11 13 14 16 17 17 18 18 19 21 22 22 24
5 2 2 2 0 0 1 3 5 4 4 1 4 5 5 11 14 21 22 21 19 18 16 11 7 8 8 5 2 6 9 12 13 15 15 17 17 17 17 19 21 23 26 30
4 2 2 5 5 4 1 3 3 3 3 1 4 4 3 10 11 21 24 22 19 16 11 11 12 8 4 2 5 7 9 11 12 11 13 15 19 16 17 20 24 28 29 29
2 2 4 5 3 3 3 4 4 5 4 2 4 5 4 6 9 16 22 22 18 15 15 14 10 6 3 7 9 11 14 15 15 16 17 17 16 16 19 24 27 27 29 31
3 1 2 1 2 2 1 4 5 5 5 4 3 5 8 9 10 23 26 24 23 22 17 13 9 6 6 8 11 13 14 15 12 13 14 15 16 21 24 23 26 30 31 31
1 1 2 1 2 0 2 4 5 4 4 4 2 3 1 6 16 15 21 21 23 18 16 11 5 3 7 10 13 15 15 12 14 16 18 20 20 22 23 26 30 31 30 29
3 2 2 1 2 2 5 5 5 4 2 5 3 4 4 4 9 14 16 18 18 19 12 6 2 4 8 12 14 15 14 15 17 18 17 19 20 22 26 31 30 30 28 29
1 2 2 3 3 1 3 1 2 6 4 6 7 6 6 7 9 9 10 17 17 12 7 1 4 8 11 12 13 14 15 17 19 17 17 18 22 26 31 30 28 27 29 30
4 2 2 3 2 5 3 3 1 2 2 4 7 6 10 13 11 9 11 11 10 5 1 4 8 10 10 10 12 13 16 20 20 18 17 20 26 30 29 27 26 28 30 29
2 4 4 2 3 6 4 2 2 4 3 2 10 10 11 11 3 4 9 7 5 2 3 5 9 9 11 10 12 15 18 20 21 20 21 26 28 27 25 25 29 26 28 30
2 2 4 2 2 7 4 5 2 5 6 5 8 13 17 5 7 17 13 7 2 1 5 6 8 10 11 13 14 16 18 19 19 21 26 27 26 25 24 28 25 27 33 37
6 5 4 2 1 6 9 4 6 5 7 9 7 7 10 14 18 15 9 5 2 2 6 8 11 13 14 15 15 18 20 22 23 25 27 27 26 24 24 25 26 31 34 25
1 6 4 7 6 6 21 4 7 9 10 7 7 9 11 15 13 10 9 5 2 4 8 11 14 14 15 17 18 20 21 21 22 24 26 27 24 23 22 26 31 33 26 25
2 5 3 3 4 8 18 9 11 10 9 10 8 10 10 13 12 10 8 3 2 6 9 12 12 16 18 18 17 20 23 21 23 25 26 25 24 21 24 28 31 25 25 26
6 5 4 4 7 4 13 20 18 13 10 9 11 10 11 13 12 9 5 1 3 7 11 14 16 15 17 19 22 20 21 22 24 25 25 25 23 23 26 28 27 22 23 24
8 7 5 6 11 8 4 17 18 16 14 11 12 14 13 11 11 6 2 2 7 11 15 15 14 17 22 20 18 18 21 23 24 23 24 22 23 24 27 30 24 19 21 25
Wind_Direction
216 135 201 194 151 187 184 188 191 140 170 120 223 256 240 234 248 240 203 266 275 213 198 189 190 183 182 186 196 200 195 202 217 212 200 205 213 220 228 238 258 273 283 287
82 209 222 185 192 208 228 193 132 12 133 140 195 230 228 233 223 190 165 158 234 310 199 184 184 185 190 190 201 210 203 208 219 218 211 223 214 232 243 253 264 283 283 284
165 218 223 219 207 210 226 189 188 169 180 350 112 298 259 246 159 136 132 134 187 342 182 182 185 184 187 189 195 206 210 211 218 224 217 216 225 231 232 241 269 283 276 274
216 271 225 220 249 215 219 221 148 137 126 198 155 251 297 168 138 102 102 84 306 242 173 187 187 182 187 188 191 203 212 211 222 234 232 223 234 239 243 252 264 270 270 281
249 257 200 190 176 104 216 87 139 144 154 109 200 102 268 126 123 127 79 62 356 256 82 190 185 185 187 191 196 206 209 223 235 245 249 253 257 260 258 261 273 285 279 276
154 251 325 103 152 161 153 77 42 56 99 28 221 152 268 213 165 135 99 83 44 58 101 177 181 181 185 195 200 208 213 214 226 238 243 251 264 272 271 267 263 263 264 263
264 344 89 87 89 358 78 86 46 31 46 220 279 148 229 163 151 152 137 114 92 99 135 155 165 172 180 190 202 213 220 228 234 238 255 270 278 276 273 276 274 268 265 260
127 331 12 251 156 175 156 148 151 175 184 225 356 171 235 165 126 132 124 119 115 110 123 133 146 153 161 177 201 223 243 251 251 254 263 267 264 263 270 273 278 279 273 276
273 326 331 52 19 107 237 178 195 115 285 93 179 66 12 128 121 123 129 130 125 119 127 134 147 163 173 190 217 234 232 226 241 250 252 258 265 271 273 278 284 284 286 292
258 84 352 268 31 30 168 195 79 358 201 217 196 166 209 180 168 156 136 137 134 137 141 144 151 165 187 209 215 217 227 245 259 268 272 272 272 272 275 282 287 291 292 292
305 119 275 67 198 197 355 37 76 129 149 170 163 261 206 177 171 161 160 154 151 149 151 145 139 120 101 63 8 337 326 316 308 304 301 295 290 286 283 283 284 289 291 290
1 99 152 217 259 108 216 204 147 121 269 206 136 254 292 180 169 160 164 158 152 150 144 136 133 138 131 116 39 333 323 319 315 308 299 298 302 296 286 288 289 294 296 298
354 260 76 348 350 349 223 212 131 119 88 216 123 251 8 100 126 156 150 153 154 154 155 158 154 147 153 226 290 291 290 294 297 287 285 291 303 303 300 301 303 303 306 307
208 271 157 184 197 169 215 208 179 121 109 212 209 168 181 153 144 162 163 168 172 172 172 181 186 192 254 292 297 296 299 300 297 295 296 302 304 301 298 299 302 309 312 312
132 84 54 130 91 27 359 182 180 188 191 148 190 172 210 195 190 182 180 176 173 177 183 181 190 219 277 292 297 303 302 302 297 296 297 300 297 298 301 309 312 311 310 310
13 248 5 182 133 234 281 264 216 225 245 267 129 132 353 246 204 184 179 176 183 176 156 161 167 259 290 301 307 307 306 290 288 291 294 297 303 308 310 310 310 309 312 314
140 115 73 266 261 321 303 230 220 206 170 156 204 209 144 75 112 158 173 180 161 159 161 167 237 301 310 311 309 309 305 301 301 303 303 305 308 310 309 310 312 315 318 321
135 94 99 204 21 261 252 39 246 220 170 125 110 142 124 139 110 119 173 162 143 151 159 175 318 321 318 315 316 312 306 308 312 310 310 310 309 309 311 314 318 322 321 320
57 99 92 119 203 297 267 264 205 132 237 181 156 159 143 128 121 82 124 157 163 157 90 334 326 320 316 314 308 304 304 309 315 315 311 308 309 313 316 318 322 319 317 311
38 78 114 114 142 219 255 188 112 70 298 277 155 170 159 146 155 227 158 171 138 105 353 338 328 327 322 320 310 307 308 312 317 314 308 309 312 313 319 321 319 314 310 309
77 25 164 183 224 285 246 161 111 90 235 153 154 175 175 170 209 155 160 151 146 356 340 337 330 329 325 322 323 320 318 312 312 309 309 311 314 318 319 319 313 310 312 315
164 143 203 125 132 282 161 112 168 205 144 158 133 165 166 149 143 147 149 139 117 12 346 333 331 334 339 334 322 318 316 313 311 309 310 314 316 319 319 314 313 313 319 321
219 180 186 172 214 233 186 192 181 173 163 167 168 162 168 159 153 149 136 124 96 335 327 330 329 326 322 323 320 317 320 316 310 308 310 314 317 320 318 315 316 321 324 329
258 180 179 64 248 204 201 195 192 187 178 184 194 173 180 157 150 136 134 136 324 321 323 323 316 317 318 320 311 313 317 318 313 311 315 318 320 323 316 319 324 325 331 330
203 137 182 263 275 232 227 218 218 188 188 178 178 183 168 159 143 148 152 217 310 325 318 315 320 322 317 317 316 317 324 322 318 317 319 319 322 323 321 323 328 332 330 326
193 188 162 224 220 199 210 214 204 196 185 191 179 156 153 157 150 157 180 303 317 318 322 324 316 316 319 321 322 327 325 324 323 320 320 323 324 321 322 325 329 338 336 336